Location: ?????????
(55.8421°N, 38.6199°E)
Time: 03:53:16
(UTC+00:00)

Daily predictions for brighter satellites

Satellite Brightness Start Highest point End
(mag) Time Altitude Azimuth Time Altitude Azimuth Time Altitude Azimuth
Genesis I 3.8 00:04:45 53° N 00:04:45 53° N 00:08:02 10° NE
Timation 1 Rocket 4.2 00:00:57 10° NW 00:06:58 76° WSW 00:12:57 10° SSE
Cosmos 2082 4.1 00:01:32 10° NW 00:05:52 44° WNW 00:05:52 44° WNW
IRS-P3 4.5 00:02:28 10° NNE 00:07:47 60° ESE 00:09:47 37° SSE
AQUA 3.8 00:05:46 10° N 00:10:30 64° WNW 00:10:41 63° W
CZ-4C R/B 3.6 00:06:34 12° WNW 00:12:03 46° N 00:19:10 10° E
Cosmos 1821 Rocket 3.9 00:06:21 10° NNW 00:12:42 77° W 00:15:30 35° S
Cosmos 1470 Rocket 3.5 00:08:52 10° NNW 00:13:21 89° WSW 00:13:45 74° S
Cosmos 1777 Rocket 3.9 00:08:28 10° NNW 00:13:29 60° WSW 00:13:29 60° WSW
Cosmos 2369 Rocket 4.1 00:10:56 14° WNW 00:14:02 21° NNW 00:18:22 10° NNE
NOSS 2-1 (C) 4.0 00:15:18 43° NNW 00:15:18 43° NNW 00:19:18 10° NE
Cosmos 1992 Rocket 4.0 00:14:43 59° WSW 00:15:27 67° WNW 00:20:42 10° NNE
CZ-4B R/B 3.4 00:12:33 10° NNE 00:17:39 84° WNW 00:18:48 55° SSW
NOSS 2-2 (C) 4.5 00:18:35 49° WSW 00:18:56 49° SW 00:25:53 10° SSE
NOSS 2-1 (D) 4.0 00:20:12 41° NNW 00:20:21 41° NNW 00:24:21 10° NE
Cosmos 1697 Rocket 2.9 00:19:51 40° S 00:21:47 66° ESE 00:27:22 10° NE
Cosmos 972 Rocket 4.2 00:21:57 38° S 00:23:38 61° ESE 00:28:33 10° NNE
Meteor 1-28 Rocket 4.3 00:25:30 33° NW 00:25:30 33° NW 00:27:45 10° NNW
Cosmos 1934 Rocket 3.9 00:18:08 10° N 00:24:14 84° ENE 00:30:19 10° SSE
ERS-2 4.2 00:22:38 10° ESE 00:25:48 28° ENE 00:29:00 10° N
SL-24 R/B 4.4 00:24:10 32° S 00:26:28 82° WSW 00:32:08 10° NNW
Cosmos 1980 Rocket 3.1 00:23:49 23° S 00:26:54 44° ESE 00:32:15 10° NE
Cosmos 2263 Rocket 2.2 00:22:50 10° NW 00:28:32 85° ENE 00:34:13 10° SE
Meteor 1-25 Rocket 4.3 00:24:55 10° NNW 00:30:39 59° W 00:32:39 38° SSW
Meteor 1-26 Rocket 4.3 00:29:01 27° S 00:31:58 69° E 00:37:22 10° NNE
Cosmos 220 Rocket 3.9 00:31:47 60° W 00:32:06 62° WNW 00:36:23 10° NNE
ATLAS CENTAUR R/B 3.8 00:16:41 10° W 00:32:36 82° N 00:38:10 10° E
Iridium 2 4.5 00:32:21 29° SSE 00:33:57 49° E 00:37:36 10° NNE
Cosmos 1844 Rocket 4.2 00:28:59 10° NNW 00:34:11 36° NE 00:39:23 10° ESE
Cosmos 405 4.0 00:37:31 34° NW 00:37:31 34° NW 00:40:06 10° N
Cosmos 1515 Rocket 3.8 00:35:46 33° S 00:37:40 70° E 00:42:07 10° NNE
Cosmos 1933 3.3 00:37:52 62° W 00:38:09 64° WNW 00:42:14 10° N
Cosmos 1356 3.3 00:35:07 10° NNW 00:38:28 82° NNW 00:38:28 82° NNW
Cosmos 1602 3.8 00:38:15 10° NNW 00:41:40 55° WNW 00:41:40 55° WNW
ADEOS II 2.2 00:37:33 10° NNE 00:42:45 60° WNW 00:44:28 40° SW
SL-16 R/B 4.4 00:38:55 10° SSE 00:43:06 22° ESE 00:47:18 10° NE
Cosmos 1633 Rocket 4.3 00:40:16 10° NNW 00:42:57 27° WNW 00:42:57 27° WNW
Cosmos 1937 Rocket 4.3 00:39:22 10° NNW 00:44:27 53° NE 00:49:29 10° SE
Nadezhda 3 Rocket 3.9 00:42:12 31° SSW 00:45:21 74° WNW 00:51:33 10° N
Cosmos 2227 4.1 00:40:45 10° NW 00:46:26 74° WSW 00:52:02 10° SSE
Cosmos 1328 Rocket 3.6 00:46:57 47° SW 00:48:01 64° WNW 00:52:28 10° N
ARIANE 5 R/B 2.4 00:43:07 10° NNE 00:48:17 88° ESE 00:51:03 28° SSW
Cosmos 1500 3.3 00:46:04 10° N 00:49:57 77° ENE 00:53:47 10° SSE
Cosmos 1151 Rocket 3.1 00:49:41 47° WSW 00:50:30 56° WNW 00:54:49 10° N
Cosmos 1933 Rocket 3.5 00:46:12 10° NNW 00:50:31 58° W 00:51:47 40° SSW
Cosmos 1605 Rocket 4.1 00:44:18 10° N 00:50:45 86° E 00:57:10 10° S
Cosmos 1535 Rocket 4.5 00:45:45 10° NNW 00:52:06 71° W 00:58:27 10° S
USA 305 3.7 00:51:12 34° S 00:52:10 39° SSE 00:56:09 10° E
IDEFIX/ARIANE 42P 2.7 00:46:56 10° NNE 00:52:15 78° ESE 00:56:03 19° S
IRS-1D 4.0 00:47:55 10° N 00:53:04 48° WNW 00:54:55 34° WSW
Cosmos 1656 3.9 00:51:02 35° WSW 00:53:06 56° NW 00:58:36 10° NNE
Meteor 1-14 Rocket 4.1 00:48:57 10° NNW 00:54:32 63° W 01:00:00 10° S
Cosmos 1812 4.1 00:51:17 10° SSE 00:54:51 37° E 00:58:28 10° NNE
Cosmos 1666 3.8 00:51:48 10° N 00:55:31 45° ENE 00:59:11 10° SE
USA 306 3.6 00:55:13 34° SSW 00:56:20 41° SSE 01:00:20 10° E
ASTEX 1 3.3 00:53:27 10° N 00:58:28 79° W 01:01:52 21° SSW
CZ-2C R/B 4.0 00:54:13 10° NNE 00:58:55 36° E 01:03:42 10° SSE
PKM 4.2 00:57:44 33° W 00:59:21 52° SSW 01:02:43 10° SE
Meteor 1-5 Rocket 4.0 00:54:44 10° NNW 01:00:05 89° ENE 01:05:28 10° SSE
NOSS 3-4 (A) 3.8 00:53:52 10° NW 01:00:37 86° NE 01:08:09 10° SE
NOSS 3-4 (C) 3.8 00:53:59 10° NW 01:00:43 86° NE 01:08:15 10° SE
CZ-4C R/B 2.9 00:58:58 14° SSE 01:02:04 81° WSW 01:05:38 10° NNW
Cosmos 2228 Rocket 3.3 01:02:04 15° S 01:05:44 70° E 01:10:09 10° NNE
IRS-1C 4.3 01:03:24 10° NNE 01:08:38 57° WNW 01:11:32 26° SW
USA 267 3.5 01:02:16 10° ENE 01:08:46 62° SSE 01:13:06 22° SW
CZ-2D R/B 3.4 01:04:58 10° NNE 01:09:10 79° WNW 01:11:39 24° SSW
Cosmos 1869 Rocket 3.4 01:05:33 10° NNW 01:09:57 83° WSW 01:14:16 10° S
SL-16 R/B 4.4 01:15:09 12° WNW 01:15:09 12° WNW 01:16:32 10° WNW
CZ-2D R/B 3.6 01:12:54 10° N 01:16:52 22° NW 01:18:49 18° W
Cosmos 1238 Rocket 4.2 01:11:22 10° NNW 01:17:47 52° W 01:23:48 10° SSW
SJ 16-02 1.5 01:16:20 10° NW 01:20:36 49° WSW 01:24:50 10° S
CZ-2C R/B 2.6 01:18:03 10° NNE 01:21:50 89° NW 01:24:49 16° SSW
PAYLOAD A 4.4 01:18:03 10° NNE 01:22:43 57° ESE 01:27:20 10° S
PSLV R/B 4.3 01:19:23 10° NNE 01:23:32 52° E 01:27:37 10° S
USA 307 3.3 01:21:47 26° SW 01:23:51 50° SSE 01:28:00 10° E
Resurs 1-4 Rocket 3.7 01:20:13 10° N 01:23:52 19° NW 01:25:56 16° WNW
Cosmos 44 3.5 01:21:10 20° SSW 01:24:14 61° SE 01:28:56 10° NE
Cosmos 2278 3.7 01:20:29 20° SW 01:24:33 82° NW 01:30:18 10° NNE
ATLAS 2AS CENTAUR R/B 2.9 01:16:53 10° NW 01:24:38 88° SW 01:31:46 10° SE
Cosmos 1782 3.2 01:23:31 27° SW 01:25:17 45° WNW 01:29:12 10° N
Cosmos 990 Rocket 3.9 01:20:35 10° NNW 01:25:43 63° WSW 01:30:52 10° SSE
USA 308 3.3 01:24:51 25° SW 01:27:02 51° SSE 01:31:11 10° E
Cosmos 2100 Rocket 4.4 01:20:39 10° N 01:27:03 72° ENE 01:33:25 10° SSE
Cosmos 1943 Rocket 4.5 01:24:17 10° NW 01:27:55 17° N 01:31:31 10° NE
Meteor 1-4 Rocket 3.1 01:26:05 10° S 01:29:29 56° E 01:32:59 10° NNE
Cosmos 389 Rocket 2.8 01:28:34 28° SW 01:30:07 48° WNW 01:33:38 10° N
Cosmos 1606 4.5 01:29:56 16° WNW 01:30:15 16° WNW 01:32:41 10° NNW
Cosmos 1727 Rocket 4.3 01:25:40 10° S 01:31:59 72° E 01:38:18 10° NNE
Lacrosse 5 1.9 01:29:27 22° WSW 01:32:43 75° SSE 01:37:48 10° ENE
USA 276 3.3 01:32:02 24° SSW 01:32:56 29° S 01:35:47 10° ESE
Cosmos 2369 3.9 01:29:32 21° WSW 01:33:22 57° NW 01:39:02 10° NNE
Cosmos 1743 4.4 01:30:07 10° N 01:33:42 36° ENE 01:37:15 10° SE
H-2A R/B 2.4 01:29:47 10° S 01:34:02 46° W 01:38:23 10° NNW
ATLAS 5 CENTAUR R/B 2.9 01:30:41 15° WNW 01:34:07 38° N 01:39:06 10° ENE
Meteor 1-11 Rocket 3.7 01:31:38 10° NNW 01:37:29 74° W 01:43:09 10° S
ADEOS Rocket 3.0 01:31:29 10° SSE 01:38:09 81° WSW 01:44:09 10° NNW
Cosmos 1339 Rocket 4.5 01:32:08 10° SSW 01:38:23 71° WNW 01:44:36 10° N
ERBS 4.1 01:38:07 11° SSW 01:40:39 24° SE 01:43:26 10° E
ALOS 3.9 01:38:52 10° NNE 01:43:12 36° E 01:47:30 10° SSE
Cosmos 1459 Rocket 4.1 01:37:09 10° N 01:43:19 82° ENE 01:49:23 10° SSE
Cosmos 972 4.4 01:41:42 14° SW 01:45:52 62° WNW 01:50:46 10° NNE
Landsat 5 4.2 01:43:06 10° SSW 01:47:17 36° W 01:51:26 10° NNW
USA 234 4.0 01:42:14 10° S 01:47:43 28° SW 01:53:13 10° WNW
MSX 3.9 01:42:32 10° NNE 01:48:16 64° WNW 01:53:58 10° SW
Spot 4 Rocket 4.3 01:43:34 10° N 01:48:32 49° WNW 01:53:11 11° SW
CZ-4B R/B 1.2 01:49:24 10° S 01:52:35 74° WSW 01:55:53 10° NNW
Meteor 1-27 Rocket 4.1 01:49:18 10° S 01:55:13 76° E 02:01:07 10° NNE
Cosmos 1484 Rocket 4.0 01:55:17 10° NNE 01:59:09 46° E 02:03:01 10° S
ERS-2 2.7 01:55:53 10° SSW 01:59:17 36° W 02:02:44 10° NNW
Cosmos 2298 Rocket 4.4 01:54:23 10° NNW 01:59:45 71° ENE 02:05:03 10° SE
Cosmos 2369 Rocket 4.4 01:56:23 10° NW 02:00:13 18° N 02:04:04 10° NE
COSMO-SKYMED 1 3.3 01:55:59 10° SSE 02:00:15 57° ENE 02:04:32 10° N
Cosmos 1898 Rocket 3.9 01:55:27 10° NW 02:00:19 40° WSW 02:05:12 10° S
Cosmos 2360 Rocket 3.9 01:55:50 10° S 02:00:55 35° ESE 02:06:00 10° NE
CZ-4C R/B 3.1 01:54:50 10° NW 02:01:30 75° NNE 02:09:27 10° ESE
Cosmos 1536 3.0 02:00:27 10° NNW 02:04:27 53° W 02:08:25 10° S
FENGYUN 3A 4.5 01:59:39 10° NNE 02:04:58 55° E 02:10:16 10° S
Cosmos 1697 Rocket 3.5 02:01:35 13° WSW 02:06:08 37° NW 02:11:22 10° NNE
Cosmos 1689 Rocket 2.3 02:04:45 10° SSE 02:07:43 73° ENE 02:10:43 10° NNW
Cosmos 372 Rocket 3.9 02:03:27 10° NNW 02:08:39 78° WSW 02:13:46 10° SSE
Meteor 1-31 Rocket 3.9 02:06:55 10° NNE 02:10:38 48° E 02:14:22 10° S
Cosmos 1980 Rocket 2.6 02:05:36 11° WSW 02:10:55 50° NW 02:16:27 10° NNE
deb Chang Zheng 4 3.9 02:06:52 10° NNE 02:11:12 70° ESE 02:15:28 10° S
Cosmos 2263 Rocket 3.2 02:07:29 10° NW 02:11:52 24° WSW 02:16:15 10° SSW
Cosmos 2278 Rocket 3.6 02:06:49 10° NNW 02:12:11 40° NE 02:17:31 10° ESE
Cosmos 1844 3.7 02:08:19 10° NW 02:13:56 84° WSW 02:19:29 10° SSE
Cosmos 1908 Rocket 4.1 02:09:34 10° N 02:14:02 65° ENE 02:18:29 10° SSE
Cosmos 2173 Rocket 4.0 02:09:37 10° NNW 02:15:52 65° W 02:22:09 10° S
USA 32 4.3 02:12:17 10° NNW 02:17:17 45° W 02:22:15 10° SSW
Cosmos 2322 Rocket 2.6 02:11:47 10° SSW 02:17:25 70° ESE 02:23:08 10° NE
Cosmos 1844 Rocket 2.7 02:12:54 10° NW 02:18:31 69° WSW 02:24:07 10° SSE
PSLV R/B 4.0 02:15:00 10° SSE 02:19:04 86° ENE 02:23:12 10° NNW
Cosmos 1437 Rocket 4.1 02:16:43 10° SSE 02:20:19 43° E 02:24:01 10° NNE
Cosmos 1544 3.3 02:16:51 10° N 02:20:29 74° ENE 02:24:04 10° SSE
Cosmos 921 Rocket 3.4 02:16:32 10° SW 02:20:32 43° WNW 02:24:35 10° NNE
COSMOS 2455 3.7 02:14:54 10° NW 02:20:51 53° NE 02:26:46 10° ESE
ADEOS II 3.8 02:18:23 10° N 02:21:31 16° NW 02:24:39 10° W
RESURS DK-1 4.2 02:19:46 10° NNW 02:23:34 32° NE 02:27:22 10° ESE
Cosmos 1937 Rocket 4.1 02:21:39 10° NW 02:26:15 33° WSW 02:30:49 10° SSW
SL-16 R/B 2.3 02:20:49 10° SSW 02:26:31 90° ESE 02:32:14 10° NE
ARIANE 5 R/B 3.9 02:22:57 10° N 02:26:49 22° NW 02:30:39 10° W
ADEOS 3.6 02:22:01 10° NNE 02:27:18 88° W 02:32:31 10° SSW
Cosmos 1707 Rocket 3.7 02:24:46 10° SSW 02:29:01 52° WNW 02:33:18 10° N
Cosmos 2150 Rocket 4.1 02:23:36 10° NNW 02:29:07 82° WSW 02:34:33 10° SSE
CZ-3B R/B 3.4 02:25:32 10° W 02:29:28 85° S 02:46:14 10° E
Cosmos 1812 3.8 02:27:26 10° SW 02:30:45 27° WNW 02:34:07 10° N
Cosmos 1666 3.9 02:27:51 10° NW 02:30:51 22° W 02:33:50 10° SW
IDEFIX/ARIANE 42P 3.8 02:27:07 10° N 02:31:23 25° NW 02:35:38 10° WSW
USA 305 3.1 02:27:39 10° WSW 02:31:54 69° S 02:36:08 10° E
Cosmos 1125 Rocket 3.7 02:27:41 10° NNW 02:33:02 80° ENE 02:38:19 10° SSE
Cosmos 2061 Rocket 4.1 02:28:18 10° NNW 02:34:42 69° W 02:41:05 10° S
USA 306 3.1 02:31:50 10° WSW 02:36:05 69° S 02:40:19 10° E
